KD8PH Weather Reports


Display with metric or nautical units.
time (UTC)temp
F
wind
direction
speed
MPH
gust
MPH
rain 1hr
in
rain 24hr
in
rain mn
in
humidity
%
barometer
mb
20260505003548 74 248 2.0 4.0 0.00 0.00 0.00 48 1010.9
20260505002545 74 248 3.0 6.0 0.00 0.00 0.00 44 1010.8
20260505001552 75 225 4.0 8.0 0.00 0.00 0.00 45 1010.7
20260505000539 75 248 4.0 9.0 0.00 0.00 0.00 44 1010.6
20260504235538 75 225 4.0 10.0 0.00 0.00 0.00 45 1010.6
20260504234543 76 225 6.0 11.0 0.00 0.00 0.00 45 1010.6
20260504233537 76 225 7.0 13.0 0.00 0.00 0.00 45 1010.7
20260504232538 76 248 2.0 5.0 0.00 0.00 0.00 48 1010.8
20260504231541 76 248 2.0 5.0 0.00 0.00 0.00 46 1010.8
20260504230536 76 270 2.0 7.0 0.00 0.00 0.00 46 1010.8
20260504225538 76 225 3.0 12.0 0.00 0.00 0.00 46 1010.9
20260504224539 76 248 3.0 9.0 0.00 0.00 0.00 45 1011.0
20260504223557 77 270 3.0 7.0 0.00 0.00 0.00 46 1011.1
20260504222546 77 248 3.0 12.0 0.00 0.00 0.00 44 1011.1
20260504221601 77 225 3.0 13.0 0.00 0.00 0.00 45 1011.3
20260504220539 77 248 4.0 10.0 0.00 0.00 0.00 43 1011.3
20260504215535 77 293 3.0 8.0 0.00 0.00 0.00 44 1011.4
20260504214550 77 248 6.0 16.0 0.00 0.00 0.00 43 1011.4
20260504213538 77 248 3.0 8.0 0.00 0.00 0.00 46 1011.3
20260504212543 77 225 6.0 11.0 0.00 0.00 0.00 45 1011.3
20260504211541 77 225 6.0 13.0 0.00 0.00 0.00 45 1011.3
20260504210536 77 68 2.0 6.0 0.00 0.00 0.00 43 1011.4
20260504205538 76 248 4.0 9.0 0.00 0.00 0.00 45 1011.6
20260504204536 76 225 5.0 11.0 0.00 0.00 0.00 45 1011.6
20260504203550 76 248 5.0 14.0 0.00 0.00 0.00 45 1011.7
20260504202539 75 225 7.0 11.0 0.00 0.00 0.00 49 1011.9
20260504201544 76 225 10.0 15.0 0.00 0.00 0.00 43 1011.9
20260504200541 76 225 4.0 12.0 0.00 0.00 0.00 46 1012.0
20260504195547 76 248 4.0 13.0 0.00 0.00 0.00 49 1012.1
20260504194549 76 293 3.0 8.0 0.00 0.00 0.00 47 1012.3
20260504193552 75 225 3.0 10.0 0.00 0.00 0.00 47 1012.4
20260504192558 75 270 2.0 4.0 0.00 0.00 0.00 48 1012.5
20260504191548 75 248 2.0 5.0 0.00 0.00 0.00 49 1012.8
20260504190546 75 248 5.0 10.0 0.00 0.00 0.00 47 1013.1
20260504185542 74 225 4.0 9.0 0.00 0.00 0.00 49 1013.1
20260504184536 74 225 5.0 10.0 0.00 0.00 0.00 52 1013.3
20260504183542 74 248 5.0 10.0 0.00 0.00 0.00 50 1013.4
20260504182539 73 225 5.0 11.0 0.00 0.00 0.00 51 1013.5
20260504181543 73 225 7.0 12.0 0.00 0.00 0.00 53 1013.7
20260504180545 72 225 8.0 13.0 0.00 0.00 0.00 51 1013.8
20260504175538 72 248 4.0 10.0 0.00 0.00 0.00 53 1014.0
20260504174537 72 225 6.0 13.0 0.00 0.00 0.00 52 1014.1
20260504173539 72 225 6.0 11.0 0.00 0.00 0.00 53 1014.2
20260504172540 72 248 7.0 11.0 0.00 0.00 0.00 55 1014.2
20260504171544 71 225 8.0 15.0 0.00 0.00 0.00 54 1014.4
20260504170553 71 225 8.0 14.0 0.00 0.00 0.00 54 1014.5
20260504150539 65 225 8.0 15.0 0.00 0.00 0.00 59 1015.5
20260504140545 63 248 2.0 8.0 0.00 0.00 0.00 60 1016.1
20260504130536 59 203 1.0 4.0 0.00 0.00 0.00 71 1016.4
20260504110539 49 0.0 0.0 0.00 0.00 0.00 92 1015.7
20260504100548 49 0.0 0.0 0.00 0.00 0.00 92 1015.5
20260504081542 49 0.0 0.0 0.00 0.00 0.00 91 1015.3
20260504080546 50 0.0 0.0 0.00 0.00 0.00 91 1015.3
20260504050544 52 0.0 1.0 0.00 0.00 0.00 87 1016.3
20260504045534 52 0.0 1.0 0.00 0.00 0.00 86 1016.2
20260504044537 52 315 1.0 2.0 0.00 0.00 0.00 85 1016.2
20260504043553 52 315 1.0 2.0 0.00 0.00 0.00 85 1016.2
20260504042537 52 0.0 1.0 0.00 0.00 0.00 84 1016.1
20260504041540 52 0.0 1.0 0.00 0.00 0.00 83 1016.2
20260504040547 52 338 1.0 2.0 0.00 0.00 0.00 81 1016.3
20260504035539 52 338 1.0 2.0 0.00 0.00 0.00 79 1016.5
20260504034543 53 0.0 1.0 0.00 0.00 0.00 79 1016.6
20260504033534 53 315 1.0 2.0 0.00 0.00 0.00 80 1016.7
20260504032537 53 315 1.0 2.0 0.00 0.00 0.00 79 1016.8
20260504031538 54 0.0 1.0 0.00 0.00 0.00 78 1016.8
20260504030539 54 338 1.0 2.0 0.00 0.00 0.00 77 1016.8
20260504025535 54 338 1.0 2.0 0.00 0.00 0.00 77 1016.7
20260504024550 54 0.0 1.0 0.00 0.00 0.00 76 1016.6
20260504023552 55 0.0 1.0 0.00 0.00 0.00 76 1016.5
20260504022538 55 0.0 2.0 0.00 0.00 0.00 74 1016.3
20260504021536 55 338 1.0 3.0 0.00 0.00 0.00 73 1016.2
20260504020541 56 338 1.0 1.0 0.00 0.00 0.00 75 1016.0
20260504015542 56 0.0 2.0 0.00 0.00 0.00 74 1015.9
20260504014534 57 0.0 0.0 0.00 0.00 0.00 74 1015.9
20260504013538 58 0.0 2.0 0.00 0.00 0.00 74 1015.7
20260504012536 59 0.0 1.0 0.00 0.00 0.00 71 1015.8
20260504011537 59 0.0 2.0 0.00 0.00 0.00 70 1015.7
20260504010539 60 0.0 1.0 0.00 0.00 0.00 68 1015.7
20260504005535 61 0.0 1.0 0.00 0.00 0.00 65 1015.7
20260504004541 61 0 1.0 2.0 0.00 0.00 0.00 63 1015.7